Theta_e
311 311 311 311 312 312 313 314 315 316 316 314 314 313 311 311 312 316 320 324 330 331 328 331 338 339 343 343 340 349 359 359 359 357 362 355 354 350 352 351 354 351 352 349 349
312 312 312 312 312 312 313 313 314 315 316 315 314 314 311 311 314 320 323 326 329 328 327 331 333 338 341 336 341 352 355 357 353 353 357 356 354 353 352 352 355 354 350 350 349
312 312 312 314 314 315 314 314 315 315 316 316 314 315 313 315 328 325 330 329 327 327 325 329 331 333 331 334 340 351 359 347 354 351 355 356 353 351 355 356 350 355 351 349 349
312 312 313 316 318 319 319 317 317 316 315 316 314 315 315 321 333 328 331 329 328 324 326 330 333 332 329 342 347 354 349 348 353 352 353 355 353 354 354 356 348 347 350 349 349
312 312 314 316 319 321 322 322 320 319 317 316 315 316 319 328 324 328 328 327 324 321 329 332 334 330 331 337 348 351 354 355 356 352 353 353 357 355 351 348 346 346 346 349 348
312 313 315 317 319 321 322 323 323 322 318 316 316 315 323 323 329 329 325 323 323 325 330 333 334 329 330 332 347 342 351 352 346 347 352 358 356 355 351 346 345 346 347 348 345
312 313 316 318 318 320 322 323 323 322 319 316 316 316 325 324 328 330 327 326 325 327 329 333 332 327 328 332 343 345 352 346 349 345 353 353 358 359 349 347 345 346 342 345 343
312 314 315 316 317 319 321 319 320 320 317 316 317 323 324 320 323 326 327 328 328 327 331 331 329 327 329 330 332 340 350 354 349 346 353 352 355 353 351 349 348 347 344 343 342
313 313 314 315 316 318 320 318 318 317 316 315 318 325 326 324 322 324 327 330 330 329 330 330 328 326 327 330 332 345 351 353 355 348 353 353 356 355 350 349 347 346 344 343 342
313 313 313 314 315 317 320 322 318 315 316 323 324 326 328 326 324 325 327 328 329 327 327 327 326 325 325 328 334 341 341 351 354 352 350 352 354 354 351 349 346 347 345 343 344
314 314 314 314 315 316 319 325 327 328 328 325 324 328 328 329 327 324 326 325 327 326 326 326 326 326 326 328 332 334 337 335 346 354 354 351 353 355 353 350 346 348 345 343 343
314 314 314 314 315 316 316 322 327 327 325 326 325 325 327 328 325 323 324 327 327 327 326 326 326 327 329 329 329 329 332 333 339 347 344 343 345 355 355 352 347 348 346 344 344
313 314 314 315 316 316 318 325 321 326 324 326 327 330 329 328 326 321 321 327 327 326 326 326 326 328 328 329 329 327 330 331 334 339 337 339 344 353 342 343 339 340 347 345 343
313 314 314 316 319 325 327 331 329 327 326 329 325 328 330 325 327 327 326 327 327 327 327 327 329 330 328 328 328 326 328 332 335 332 334 335 339 352 346 347 347 349 349 344 339
313 314 316 318 318 322 330 329 326 326 334 331 325 327 327 325 328 327 328 326 327 328 327 328 329 329 330 328 327 326 328 330 333 332 330 332 342 352 349 349 345 348 347 346 345
313 315 320 319 317 322 328 330 326 329 335 328 327 326 325 325 327 328 326 326 327 328 328 328 329 330 329 328 327 327 327 327 331 329 333 335 342 352 353 351 345 344 342 344 344
314 317 323 323 329 328 327 329 332 333 332 329 328 328 325 324 326 327 327 328 329 330 329 329 330 330 329 326 326 325 324 325 333 333 335 340 339 342 346 346 343 342 337 339 343
316 321 324 327 326 328 329 333 337 335 332 330 329 329 329 326 325 327 326 327 328 327 328 329 331 329 328 326 324 323 321 325 333 334 336 338 341 340 341 339 343 343 343 344 345
322 326 326 331 327 328 331 336 335 333 331 330 330 331 329 328 329 327 325 327 329 328 329 329 330 330 329 326 324 323 323 321 323 326 327 330 339 342 339 340 340 343 349 350 347
324 328 332 332 330 329 334 335 335 333 331 330 331 331 330 331 332 328 328 327 328 329 327 329 330 329 329 326 324 322 322 321 325 331 334 331 341 346 344 340 341 343 345 341 347
326 335 331 330 330 333 337 335 334 333 331 331 332 332 331 332 332 333 333 332 329 330 329 330 328 329 329 329 323 323 321 320 321 325 330 332 335 342 342 336 343 345 346 344 337
327 341 330 329 333 334 334 334 330 334 331 330 331 332 333 333 333 333 332 333 333 332 331 331 329 329 329 328 327 327 320 319 323 325 328 329 330 341 340 341 342 340 339 338 335
328 334 332 330 335 337 333 333 333 331 331 332 332 331 331 333 336 336 334 333 332 332 330 329 330 330 331 328 327 328 328 323 320 322 325 328 331 339 339 343 341 340 342 337 335
330 335 332 330 330 330 330 330 327 328 331 331 331 331 332 332 331 334 334 334 332 335 347 335 328 328 330 330 329 331 333 332 331 324 324 326 328 338 337 345 343 340 338 336 336
330 328 325 326 325 325 325 325 324 325 327 328 330 328 327 327 332 332 331 330 330 335 334 334 338 337 335 335 333 330 331 331 333 330 327 323 328 338 335 338 344 343 341 341 347
325 326 324 327 326 327 324 328 327 326 324 324 325 324 325 326 327 326 325 324 328 327 330 333 339 338 340 338 336 337 332 330 330 332 331 330 326 333 330 336 344 347 346 349 350
321 320 325 327 327 327 326 325 324 324 324 323 323 323 323 323 322 321 320 321 322 323 322 325 334 338 341 339 338 340 336 332 331 331 330 331 327 331 339 344 342 346 340 340 350
Wind_Speed
12 12 12 12 13 13 12 12 11 12 11 9 8 9 10 11 11 10 7 11 10 12 9 13 15 24 26 14 14 5 4 4 6 3 3 2 4 3 3 6 18 11 18 17 19
12 12 12 13 13 13 12 11 11 11 11 9 8 8 9 11 12 13 20 10 8 7 11 13 15 19 10 8 4 5 4 3 7 7 4 5 6 3 2 9 17 18 23 24 22
13 13 14 13 13 13 13 12 12 11 10 8 7 7 7 8 4 8 10 21 23 15 15 18 25 16 11 5 6 1 7 6 2 5 7 5 4 3 2 5 8 7 17 18 21
15 15 15 15 14 14 13 13 13 12 10 8 6 6 5 2 2 1 5 22 18 11 11 14 11 11 8 3 3 6 8 4 7 6 3 5 6 6 3 5 5 9 12 17 14
15 16 16 16 15 14 14 14 13 12 10 8 6 4 2 4 11 10 6 18 14 10 12 12 15 11 7 2 7 2 6 12 15 5 7 11 9 5 5 7 14 18 14 17 15
16 16 17 17 16 16 16 16 15 13 10 8 6 4 2 5 5 13 10 15 13 14 12 19 12 12 7 7 3 3 11 10 7 2 7 10 8 6 9 12 15 13 20 16 13
17 16 17 17 17 17 17 18 15 11 8 7 5 2 6 15 4 10 10 14 15 16 10 27 23 9 9 10 6 7 12 27 18 5 4 9 7 8 10 15 13 13 9 15 14
17 16 17 18 18 18 18 15 9 7 6 5 4 2 7 16 25 23 18 16 14 16 23 25 23 7 6 10 14 2 7 8 24 9 6 8 5 7 15 13 15 17 7 4 14
18 17 18 18 18 17 17 11 8 5 4 4 3 4 9 12 17 23 23 15 20 19 21 24 6 5 10 8 9 5 5 5 6 11 5 10 5 13 15 12 12 6 11 11 7
19 19 19 19 18 17 14 10 6 0 0 2 10 5 8 10 17 19 18 19 10 10 10 7 3 6 6 5 7 9 5 9 6 9 13 13 9 7 12 11 8 6 5 6 10
20 21 21 21 18 16 13 4 1 2 8 10 9 6 10 22 14 17 23 20 10 6 7 9 4 7 14 14 15 15 8 9 10 14 10 11 10 13 14 3 9 8 8 10 7
23 22 23 21 17 14 9 4 10 15 7 20 21 20 28 21 8 11 21 9 8 8 9 7 8 14 16 16 13 11 5 9 6 10 11 8 7 15 15 7 1 3 10 15 9
24 24 25 21 18 15 14 17 17 19 5 10 19 11 13 15 7 11 13 10 9 9 12 9 11 15 16 17 10 11 5 8 10 4 3 3 2 9 3 3 5 11 12 9 12
25 27 25 18 9 5 7 10 13 14 4 7 9 11 11 15 10 12 21 10 9 12 12 10 15 16 13 7 6 7 11 9 7 7 3 3 4 3 6 5 6 9 15 11 14
27 27 22 10 10 6 12 6 5 4 4 6 8 11 12 13 4 14 19 10 12 12 9 13 12 11 9 8 9 10 8 9 4 5 6 7 2 3 1 7 11 14 10 14 16
29 24 12 4 8 14 10 11 4 1 6 5 6 7 8 10 15 14 9 9 14 13 13 14 15 12 8 10 7 7 6 9 4 1 4 5 2 4 7 7 4 5 9 19 13
28 17 7 8 5 9 11 8 2 4 8 7 6 10 11 8 13 14 8 13 9 3 7 13 20 17 15 8 6 6 4 4 5 3 7 5 1 7 15 18 27 19 22 20 14
22 10 8 14 7 8 11 1 4 9 9 16 7 5 10 10 12 13 10 8 9 10 9 10 13 14 13 14 9 7 6 5 7 4 6 5 7 7 13 12 25 23 21 18 24
14 6 5 5 12 6 2 4 4 1 11 8 12 8 5 7 9 12 14 11 12 14 13 8 15 20 19 10 11 8 6 9 7 6 6 6 6 7 11 9 8 19 23 24 21
9 8 14 11 10 7 2 6 7 15 8 10 6 8 12 17 12 6 13 16 18 18 10 10 10 13 18 7 9 10 7 3 4 3 7 7 4 5 5 7 12 12 22 11 15
2 3 12 10 11 2 3 6 12 7 5 4 7 9 12 14 14 15 7 12 1 7 5 8 8 12 8 4 9 2 4 5 2 3 3 4 4 6 11 6 9 11 16 11 1
7 3 17 15 3 4 6 5 5 13 9 9 3 9 8 11 10 11 15 9 17 16 10 2 4 5 12 10 11 6 11 10 5 9 4 4 6 6 8 11 13 9 11 9 10
4 3 14 12 3 5 8 13 9 6 3 8 9 11 12 9 7 13 15 17 14 11 7 8 4 4 11 7 8 6 6 5 6 5 9 4 6 6 6 15 13 15 11 8 8
3 3 1 3 4 7 8 7 13 15 7 1 3 8 8 8 11 9 13 14 17 13 18 8 4 5 6 9 6 7 8 9 12 6 5 8 7 8 9 20 14 10 12 10 6
2 4 4 4 8 9 7 8 9 10 10 14 9 15 13 7 9 13 16 16 17 15 13 13 5 8 10 12 19 16 16 14 18 10 6 11 7 5 6 15 17 18 13 11 8
4 4 6 7 9 7 8 5 11 15 9 9 7 13 9 6 7 10 12 11 5 10 10 10 6 8 10 13 15 21 19 18 18 13 9 16 11 9 11 10 18 18 16 11 10
15 13 3 7 7 9 5 7 10 10 6 12 13 10 12 13 14 9 9 10 13 10 11 7 6 6 7 11 15 14 8 11 15 16 9 15 11 6 6 8 13 10 9 8 8
Wind_Direction
358 355 351 348 345 340 336 334 333 333 332 322 309 303 304 304 301 289 253 235 265 240 266 261 253 255 259 260 266 101 63 77 268 316 150 242 156 198 356 333 64 87 114 126 127
356 352 346 342 339 336 332 331 330 331 331 327 309 305 308 319 312 255 247 234 220 234 246 246 264 250 249 267 269 95 57 232 241 42 135 192 104 107 45 22 69 107 121 137 143
353 349 343 341 338 333 330 327 326 325 326 324 308 303 315 334 295 241 220 215 241 259 264 268 281 281 287 298 27 72 181 233 296 68 85 143 73 63 83 47 50 164 139 151 160
351 349 344 340 335 332 329 325 324 322 318 316 302 300 315 343 298 19 221 209 224 242 263 270 276 274 273 159 138 112 246 240 345 102 68 109 94 74 20 187 131 242 188 166 160
348 345 342 336 331 328 327 322 318 315 307 302 283 284 309 226 249 272 188 189 206 209 238 267 280 292 330 318 124 189 91 71 294 201 135 93 92 101 110 176 185 238 218 171 166
346 341 340 336 332 328 325 319 311 305 295 288 268 271 285 245 300 201 189 193 204 199 231 255 264 285 288 310 115 190 95 138 199 294 127 130 143 121 237 229 226 236 172 175 154
343 340 342 338 335 330 324 318 306 296 283 273 247 252 259 237 311 183 184 206 212 214 234 256 274 324 309 317 146 187 58 12 317 317 196 155 136 223 196 207 229 253 217 159 162
345 341 338 335 333 329 326 321 305 283 267 252 226 167 254 255 261 258 217 203 219 235 245 265 287 334 316 293 299 244 76 114 258 265 241 133 240 195 189 186 223 242 151 144 156
343 339 336 332 329 325 326 318 312 267 236 215 194 205 265 288 223 246 239 228 204 224 245 259 292 312 301 284 293 205 187 182 255 199 196 201 227 189 174 183 201 225 156 175 174
341 337 332 329 326 322 323 326 330 123 195 298 266 273 255 228 200 220 221 241 218 210 236 246 234 242 273 261 253 236 299 177 195 189 211 201 233 175 176 174 193 213 173 170 159
338 333 329 325 321 317 323 339 294 246 236 203 192 230 294 229 218 200 205 241 245 206 219 246 209 239 248 253 259 278 236 324 184 199 196 196 217 188 158 304 228 179 193 181 215
334 329 325 320 314 304 297 246 258 331 280 223 243 234 256 269 211 175 196 204 222 234 227 256 235 236 255 270 283 302 337 305 278 182 190 216 246 170 148 172 250 262 199 198 202
332 327 324 318 308 288 232 238 267 303 290 271 216 220 241 258 244 189 183 198 217 232 249 234 245 248 242 255 262 286 249 265 267 217 204 204 152 128 343 211 167 253 242 216 196
332 326 323 317 309 288 235 273 264 264 303 268 182 218 220 243 241 239 185 174 211 241 240 241 253 255 279 264 264 270 294 290 336 4 275 157 261 207 171 237 226 247 219 194 206
333 327 322 299 293 286 332 346 354 307 294 154 139 182 187 203 268 206 203 191 216 226 230 254 266 275 264 257 270 269 283 293 243 275 316 287 136 53 46 223 192 207 233 220 216
334 326 319 306 263 268 324 334 260 270 246 161 133 177 198 197 235 264 198 181 202 234 267 274 283 280 261 295 255 291 268 308 284 358 313 291 186 173 186 221 192 240 197 224 233
331 317 273 229 227 348 270 289 251 239 307 148 175 175 189 221 210 242 219 192 208 244 262 264 261 260 260 275 282 313 309 306 322 335 244 230 62 223 216 188 192 200 211 213 219
329 302 258 249 245 313 294 258 256 275 321 7 6 184 188 193 207 207 244 199 224 215 254 277 291 244 238 213 193 218 203 188 253 257 265 97 227 247 210 223 189 206 211 208 220
337 307 254 252 207 253 272 225 240 339 9 3 349 325 305 264 218 185 207 215 214 222 221 237 270 289 299 199 174 241 259 235 262 276 298 251 264 38 223 272 183 187 202 204 187
340 286 241 168 150 223 245 253 286 293 329 9 337 309 321 318 341 242 199 218 222 235 212 228 246 258 277 173 211 167 213 321 309 259 269 293 322 185 93 97 84 77 70 341 183
308 247 133 142 162 214 240 253 285 322 73 22 325 322 322 318 330 330 323 323 266 287 307 321 230 255 254 238 208 193 216 252 228 193 220 300 283 215 183 177 107 103 119 222 47
317 260 151 159 191 212 231 245 240 326 5 316 299 287 279 309 315 313 312 325 358 346 328 156 241 273 227 243 266 238 197 192 151 277 240 207 272 149 184 127 126 129 130 188 245
303 259 161 191 258 283 308 326 3 343 356 4 338 341 353 341 334 330 324 323 333 352 10 332 314 359 333 313 258 249 285 250 199 193 235 216 259 216 220 139 150 147 190 221 227
291 302 99 209 249 306 14 345 348 342 333 289 247 1 344 327 314 301 309 320 2 24 349 7 303 217 231 259 309 311 342 312 282 292 239 237 249 210 219 155 154 181 181 193 238
288 31 1 330 346 337 337 315 307 309 17 23 359 353 344 349 327 342 342 339 346 2 354 354 327 334 326 322 310 298 297 285 259 249 281 265 275 169 145 146 186 189 176 191 205
11 356 343 294 308 307 282 9 7 7 12 346 329 337 336 327 308 342 339 339 316 336 337 326 318 340 323 326 314 311 278 283 290 287 286 298 264 206 193 150 155 173 178 168 148
8 335 273 292 305 291 13 16 342 344 347 342 350 343 324 313 322 320 312 297 293 299 307 298 294 314 283 324 334 293 290 255 271 292 268 284 278 231 141 155 142 138 99 7 139